Time,TemperatureF,DewpointF,PressureIn,WindDirection,WindDirectionDegrees,WindSpeedMPH,WindSpeedGustMPH,Humidity,HourlyPrecipIn,Conditions,Clouds,dailyrainin,SoftwareType,DateUTC
2013-04-25 00:01:00,75.2,63.1,29.97,East,90,1.2,1.4,66,0.00,CLR,BKN,0.00,WeatherDisplay:10.37,2013-04-25 04:01:00,
2013-04-25 00:06:00,75.2,63.1,29.97,East,90,1.4,1.4,66,0.00,CLR,BKN,0.00,WeatherDisplay:10.37,2013-04-25 04:06:00,
2013-04-25 00:11:00,75.2,63.1,29.97,East,90,1.4,1.4,66,0.00,CLR,BKN,0.00,WeatherDisplay:10.37,2013-04-25 04:11:00,
2013-04-25 00:16:00,75.2,63.1,29.97,East,90,1.4,1.4,66,0.00,CLR,BKN,0.00,WeatherDisplay:10.37,2013-04-25 04:16:00,
2013-04-25 00:21:00,75.2,63.1,29.97,East,90,1.2,1.4,66,0.00,CLR,BKN,0.00,WeatherDisplay:10.37,2013-04-25 04:21:00,
2013-04-25 00:26:00,75.2,63.1,29.97,East,90,1.4,1.4,66,0.00,CLR,BKN,0.00,WeatherDisplay:10.37,2013-04-25 04:26:00,
2013-04-25 00:31:00,75.0,62.9,29.97,ENE,68,1.6,1.6,66,0.00,CLR,BKN,0.00,WeatherDisplay:10.37,2013-04-25 04:31:00,
2013-04-25 00:36:00,75.0,62.9,29.97,ENE,68,1.6,1.6,66,0.00,CLR,BKN,0.00,WeatherDisplay:10.37,2013-04-25 04:36:00,
2013-04-25 00:41:00,75.0,62.9,29.97,ENE,68,1.2,1.6,66,0.00,CLR,BKN,0.00,WeatherDisplay:10.37,2013-04-25 04:41:00,
2013-04-25 00:46:00,75.0,62.9,29.97,ENE,68,1.6,1.6,66,0.00,CLR,BKN,0.00,WeatherDisplay:10.37,2013-04-25 04:46:00,
2013-04-25 00:51:00,75.0,62.9,29.97,ENE,68,1.6,1.6,66,0.00,CLR,BKN,0.00,WeatherDisplay:10.37,2013-04-25 04:51:00,
2013-04-25 00:56:00,75.0,62.9,29.97,ENE,68,1.6,1.6,66,0.00,CLR,BKN,0.00,WeatherDisplay:10.37,2013-04-25 04:56:00,
2013-04-25 01:01:00,74.8,63.1,29.97,ENE,68,2.4,2.4,67,0.00,CLR,BKN,0.00,WeatherDisplay:10.37,2013-04-25 05:01:00,
2013-04-25 01:06:00,74.8,63.1,29.97,ENE,68,2.4,2.4,67,0.00,CLR,BKN,0.00,WeatherDisplay:10.37,2013-04-25 05:06:00,
2013-04-25 01:11:00,74.8,63.1,29.97,ENE,68,2.3,2.4,67,0.00,CLR,BKN,0.00,WeatherDisplay:10.37,2013-04-25 05:11:00,
2013-04-25 01:16:00,74.8,63.1,29.97,ENE,68,2.4,2.4,67,0.00,CLR,BKN,0.00,WeatherDisplay:10.37,2013-04-25 05:16:00,
2013-04-25 01:21:00,74.8,63.1,29.97,ENE,68,2.4,2.4,67,0.00,CLR,BKN,0.00,WeatherDisplay:10.37,2013-04-25 05:21:00,
2013-04-25 01:26:00,74.8,63.1,29.97,ENE,68,2.4,2.4,67,0.00,CLR,BKN,0.00,WeatherDisplay:10.37,2013-04-25 05:26:00,
2013-04-25 01:31:00,74.7,63.0,29.96,East,90,2.3,2.3,67,0.00,CLR,BKN,0.00,WeatherDisplay:10.37,2013-04-25 05:31:00,
2013-04-25 01:36:00,74.7,63.0,29.96,East,90,2.3,2.3,67,0.00,CLR,BKN,0.00,WeatherDisplay:10.37,2013-04-25 05:36:00,
2013-04-25 01:41:00,74.7,63.0,29.96,East,90,2.3,2.3,67,0.00,CLR,BKN,0.00,WeatherDisplay:10.37,2013-04-25 05:41:00,
2013-04-25 01:46:00,74.7,63.0,29.96,East,90,2.3,2.3,67,0.00,CLR,BKN,0.00,WeatherDisplay:10.37,2013-04-25 05:46:00,
2013-04-25 01:51:00,74.7,63.0,29.96,East,90,2.3,2.3,67,0.00,CLR,BKN,0.00,WeatherDisplay:10.37,2013-04-25 05:51:00,
2013-04-25 01:56:00,74.7,63.0,29.96,East,90,2.3,2.3,67,0.00,CLR,BKN,0.00,WeatherDisplay:10.37,2013-04-25 05:56:00,
2013-04-25 02:01:00,74.5,62.8,29.94,ENE,68,0.5,0.5,67,0.00,CLR,BKN,0.00,WeatherDisplay:10.37,2013-04-25 06:01:00,
2013-04-25 02:06:00,74.5,62.8,29.94,ENE,68,0.5,0.5,67,0.00,CLR,BKN,0.00,WeatherDisplay:10.37,2013-04-25 06:06:00,
2013-04-25 02:11:00,74.5,62.8,29.94,ENE,68,0.5,0.5,67,0.00,CLR,BKN,0.00,WeatherDisplay:10.37,2013-04-25 06:11:00,
2013-04-25 02:16:00,74.5,62.8,29.94,ENE,68,0.5,0.5,67,0.00,CLR,BKN,0.00,WeatherDisplay:10.37,2013-04-25 06:16:00,
2013-04-25 02:21:00,74.5,62.8,29.94,ENE,68,0.5,0.5,67,0.00,CLR,BKN,0.00,WeatherDisplay:10.37,2013-04-25 06:21:00,
2013-04-25 02:26:00,74.5,62.8,29.94,ENE,68,0.5,0.5,67,0.00,CLR,BKN,0.00,WeatherDisplay:10.37,2013-04-25 06:26:00,
2013-04-25 02:31:00,74.1,62.5,29.94,ENE,68,1.6,1.6,67,0.00,CLR,BKN,0.00,WeatherDisplay:10.37,2013-04-25 06:31:00,
2013-04-25 02:36:00,74.1,62.5,29.94,ENE,68,1.6,1.6,67,0.00,CLR,BKN,0.00,WeatherDisplay:10.37,2013-04-25 06:36:00,
2013-04-25 02:42:00,74.1,62.5,29.94,ENE,68,1.6,1.6,67,0.00,CLR,BKN,0.00,WeatherDisplay:10.37,2013-04-25 06:42:00,
2013-04-25 02:47:00,74.1,62.5,29.94,ENE,68,1.6,1.6,67,0.00,CLR,BKN,0.00,WeatherDisplay:10.37,2013-04-25 06:47:00,
2013-04-25 02:52:00,74.1,62.5,29.94,ENE,68,1.6,1.6,67,0.00,CLR,BKN,0.00,WeatherDisplay:10.37,2013-04-25 06:52:00,
2013-04-25 02:57:00,74.1,62.5,29.94,ENE,68,1.6,1.6,67,0.00,CLR,BKN,0.00,WeatherDisplay:10.37,2013-04-25 06:57:00,
2013-04-25 03:02:00,73.8,62.1,29.93,ENE,68,1.4,1.4,67,0.00,CLR,BKN,0.00,WeatherDisplay:10.37,2013-04-25 07:02:00,
2013-04-25 03:07:00,73.8,62.1,29.93,ENE,68,1.4,1.4,67,0.00,CLR,BKN,0.00,WeatherDisplay:10.37,2013-04-25 07:07:00,
2013-04-25 03:12:00,73.8,62.1,29.93,ENE,68,1.4,1.4,67,0.00,CLR,BKN,0.00,WeatherDisplay:10.37,2013-04-25 07:12:00,
2013-04-25 03:17:00,73.8,62.1,29.93,ENE,68,1.4,1.4,67,0.00,CLR,BKN,0.00,WeatherDisplay:10.37,2013-04-25 07:17:00,
2013-04-25 03:22:00,73.8,62.1,29.93,ENE,68,1.4,1.4,67,0.00,CLR,BKN,0.00,WeatherDisplay:10.37,2013-04-25 07:22:00,
2013-04-25 03:27:00,73.8,62.1,29.93,ENE,68,1.4,1.4,67,0.00,CLR,BKN,0.00,WeatherDisplay:10.37,2013-04-25 07:27:00,
2013-04-25 03:32:00,73.6,61.9,29.93,ENE,68,1.6,1.6,67,0.00,CLR,BKN,0.00,WeatherDisplay:10.37,2013-04-25 07:32:00,
2013-04-25 03:37:00,73.6,61.9,29.93,ENE,68,1.6,1.6,67,0.00,CLR,BKN,0.00,WeatherDisplay:10.37,2013-04-25 07:37:00,
2013-04-25 03:42:00,73.6,61.9,29.93,ENE,68,1.6,1.6,67,0.00,CLR,BKN,0.00,WeatherDisplay:10.37,2013-04-25 07:42:00,
2013-04-25 03:47:00,73.6,61.9,29.93,ENE,68,1.2,1.6,67,0.00,CLR,BKN,0.00,WeatherDisplay:10.37,2013-04-25 07:47:00,
2013-04-25 03:52:00,73.6,61.9,29.93,ENE,68,1.6,1.6,67,0.00,CLR,BKN,0.00,WeatherDisplay:10.37,2013-04-25 07:52:00,
2013-04-25 03:57:00,73.6,61.9,29.93,ENE,68,1.6,1.6,67,0.00,CLR,BKN,0.00,WeatherDisplay:10.37,2013-04-25 07:57:00,
2013-04-25 04:02:00,73.2,61.6,29.93,East,90,1.4,1.4,67,0.00,CLR,BKN,0.00,WeatherDisplay:10.37,2013-04-25 08:02:00,
2013-04-25 04:07:00,73.2,61.6,29.93,East,90,1.4,1.4,67,0.00,CLR,BKN,0.00,WeatherDisplay:10.37,2013-04-25 08:07:00,
2013-04-25 04:12:00,73.2,61.6,29.93,East,90,1.4,1.4,67,0.00,CLR,BKN,0.00,WeatherDisplay:10.37,2013-04-25 08:12:00,
2013-04-25 04:17:00,73.2,61.6,29.93,East,90,1.2,1.4,67,0.00,CLR,BKN,0.00,WeatherDisplay:10.37,2013-04-25 08:17:00,
2013-04-25 04:22:00,73.2,61.6,29.93,East,90,1.4,1.4,67,0.00,CLR,BKN,0.00,WeatherDisplay:10.37,2013-04-25 08:22:00,
2013-04-25 04:27:00,73.2,61.6,29.93,East,90,1.4,1.4,67,0.00,CLR,BKN,0.00,WeatherDisplay:10.37,2013-04-25 08:27:00,
2013-04-25 04:32:00,72.9,61.7,29.93,ENE,68,1.6,1.6,68,0.00,CLR,BKN,0.00,WeatherDisplay:10.37,2013-04-25 08:32:00,
2013-04-25 04:37:00,72.9,61.7,29.93,ENE,68,1.6,1.6,68,0.00,CLR,BKN,0.00,WeatherDisplay:10.37,2013-04-25 08:37:00,
2013-04-25 04:42:00,72.9,61.7,29.93,ENE,68,1.6,1.6,68,0.00,CLR,BKN,0.00,WeatherDisplay:10.37,2013-04-25 08:42:00,
2013-04-25 04:47:00,72.9,61.7,29.93,ENE,68,1.6,1.6,68,0.00,CLR,BKN,0.00,WeatherDisplay:10.37,2013-04-25 08:47:00,
2013-04-25 04:52:00,72.9,61.7,29.93,ENE,68,1.6,1.6,68,0.00,CLR,BKN,0.00,WeatherDisplay:10.37,2013-04-25 08:52:00,
2013-04-25 04:57:00,72.9,61.7,29.93,ENE,68,1.6,1.6,68,0.00,CLR,BKN,0.00,WeatherDisplay:10.37,2013-04-25 08:57:00,
2013-04-25 05:02:00,72.3,61.6,29.93,East,90,0.0,0.0,69,0.00,CLR,BKN,0.00,WeatherDisplay:10.37,2013-04-25 09:02:00,
2013-04-25 05:07:00,72.3,61.6,29.93,East,90,0.0,0.0,69,0.00,CLR,BKN,0.00,WeatherDisplay:10.37,2013-04-25 09:07:00,
2013-04-25 05:12:00,72.3,61.6,29.93,East,90,0.0,0.0,69,0.00,CLR,BKN,0.00,WeatherDisplay:10.37,2013-04-25 09:12:00,
2013-04-25 05:17:00,72.3,61.6,29.93,East,90,0.0,0.0,69,0.00,CLR,BKN,0.00,WeatherDisplay:10.37,2013-04-25 09:17:00,
2013-04-25 05:22:00,72.3,61.6,29.93,East,90,0.0,0.0,69,0.00,CLR,BKN,0.00,WeatherDisplay:10.37,2013-04-25 09:22:00,
2013-04-25 05:27:00,72.3,61.6,29.93,East,90,0.0,0.0,69,0.00,CLR,BKN,0.00,WeatherDisplay:10.37,2013-04-25 09:27:00,
2013-04-25 05:32:00,71.2,61.0,29.94,ENE,68,0.0,0.0,70,0.00,CLR,BKN,0.00,WeatherDisplay:10.37,2013-04-25 09:32:00,
2013-04-25 05:37:00,71.2,61.0,29.94,ENE,68,0.0,0.0,70,0.00,CLR,BKN,0.00,WeatherDisplay:10.37,2013-04-25 09:37:00,
2013-04-25 05:42:00,71.2,61.0,29.94,ENE,68,0.0,0.0,70,0.00,CLR,BKN,0.00,WeatherDisplay:10.37,2013-04-25 09:42:00,
2013-04-25 05:47:00,71.2,61.0,29.94,ENE,68,0.0,0.0,70,0.00,CLR,BKN,0.00,WeatherDisplay:10.37,2013-04-25 09:47:00,
2013-04-25 05:52:00,71.2,61.0,29.94,ENE,68,0.0,0.0,70,0.00,CLR,BKN,0.00,WeatherDisplay:10.37,2013-04-25 09:52:00,
2013-04-25 05:57:00,71.2,61.0,29.94,ENE,68,0.0,0.0,70,0.00,CLR,BKN,0.00,WeatherDisplay:10.37,2013-04-25 09:57:00,
2013-04-25 06:02:00,70.3,60.5,29.94,ENE,68,0.0,0.0,71,0.00,CLR,BKN,0.00,WeatherDisplay:10.37,2013-04-25 10:02:00,
2013-04-25 06:07:00,70.3,60.5,29.94,ENE,68,0.0,0.0,71,0.00,CLR,BKN,0.00,WeatherDisplay:10.37,2013-04-25 10:07:00,
2013-04-25 06:12:00,70.3,60.5,29.94,ENE,68,0.0,0.0,71,0.00,CLR,BKN,0.00,WeatherDisplay:10.37,2013-04-25 10:12:00,
2013-04-25 06:17:00,70.3,60.5,29.94,ENE,68,0.0,0.0,71,0.00,CLR,BKN,0.00,WeatherDisplay:10.37,2013-04-25 10:17:00,
2013-04-25 06:22:00,70.3,60.5,29.94,ENE,68,0.0,0.0,71,0.00,CLR,BKN,0.00,WeatherDisplay:10.37,2013-04-25 10:22:00,
2013-04-25 06:27:00,70.3,60.5,29.94,ENE,68,0.0,0.0,71,0.00,CLR,BKN,0.00,WeatherDisplay:10.37,2013-04-25 10:27:00,
2013-04-25 06:32:00,69.4,60.0,29.95,ENE,68,0.0,0.0,72,0.00,CLR,BKN,0.00,WeatherDisplay:10.37,2013-04-25 10:32:00,
2013-04-25 06:37:00,69.4,60.0,29.95,ENE,68,0.0,0.0,72,0.00,CLR,BKN,0.00,WeatherDisplay:10.37,2013-04-25 10:37:00,
2013-04-25 06:42:00,69.4,60.0,29.95,ENE,68,0.0,0.0,72,0.00,CLR,BKN,0.00,WeatherDisplay:10.37,2013-04-25 10:42:00,
2013-04-25 06:47:00,69.4,60.0,29.95,ENE,68,0.0,0.0,72,0.00,CLR,BKN,0.00,WeatherDisplay:10.37,2013-04-25 10:47:00,
2013-04-25 06:52:00,69.4,60.0,29.95,ENE,68,0.0,0.0,72,0.00,CLR,BKN,0.00,WeatherDisplay:10.37,2013-04-25 10:52:00,
2013-04-25 06:57:00,69.4,60.0,29.95,ENE,68,0.0,0.0,72,0.00,CLR,BKN,0.00,WeatherDisplay:10.37,2013-04-25 10:57:00,
2013-04-25 07:02:00,68.9,60.3,29.97,ENE,68,0.0,0.0,74,0.00,CLR,BKN,0.00,WeatherDisplay:10.37,2013-04-25 11:02:00,
2013-04-25 07:07:00,68.9,60.3,29.97,ENE,68,0.0,0.0,74,0.00,CLR,BKN,0.00,WeatherDisplay:10.37,2013-04-25 11:07:00,
2013-04-25 07:12:00,68.9,60.3,29.97,ENE,68,0.0,0.0,74,0.00,CLR,BKN,0.00,WeatherDisplay:10.37,2013-04-25 11:12:00,
2013-04-25 07:17:00,68.9,60.3,29.97,ENE,68,0.0,0.0,74,0.00,CLR,BKN,0.00,WeatherDisplay:10.37,2013-04-25 11:17:00,
2013-04-25 07:22:00,68.9,60.3,29.97,ENE,68,0.0,0.0,74,0.00,CLR,BKN,0.00,WeatherDisplay:10.37,2013-04-25 11:22:00,
2013-04-25 07:27:00,68.9,60.3,29.97,ENE,68,0.0,0.0,74,0.00,CLR,BKN,0.00,WeatherDisplay:10.37,2013-04-25 11:27:00,
2013-04-25 07:32:00,69.4,61.2,29.98,NE,45,0.0,0.0,75,0.00,CLR,BKN,0.00,WeatherDisplay:10.37,2013-04-25 11:32:00,
2013-04-25 07:37:00,69.4,61.2,29.98,NE,45,0.0,0.0,75,0.00,CLR,BKN,0.00,WeatherDisplay:10.37,2013-04-25 11:37:00,
2013-04-25 07:42:00,69.4,61.2,29.98,NE,45,0.0,0.0,75,0.00,CLR,BKN,0.00,WeatherDisplay:10.37,2013-04-25 11:42:00,
2013-04-25 07:47:00,69.4,61.2,29.98,NE,45,0.0,0.0,75,0.00,CLR,BKN,0.00,WeatherDisplay:10.37,2013-04-25 11:47:00,
2013-04-25 07:52:00,69.4,61.2,29.98,NE,45,0.0,0.0,75,0.00,CLR,BKN,0.00,WeatherDisplay:10.37,2013-04-25 11:52:00,
2013-04-25 07:57:00,69.4,61.2,29.98,NE,45,0.0,0.0,75,0.00,CLR,BKN,0.00,WeatherDisplay:10.37,2013-04-25 11:57:00,
2013-04-25 08:03:00,73.6,64.8,30.00,East,90,1.2,1.2,74,0.00,CLR,BKN,0.00,WeatherDisplay:10.37,2013-04-25 12:03:00,
2013-04-25 08:08:00,73.6,64.8,30.00,East,90,1.2,1.2,74,0.00,CLR,BKN,0.00,WeatherDisplay:10.37,2013-04-25 12:08:00,
2013-04-25 08:13:00,73.6,64.8,30.00,East,90,1.2,1.2,74,0.00,CLR,BKN,0.00,WeatherDisplay:10.37,2013-04-25 12:13:00,
2013-04-25 08:18:00,73.6,64.8,30.00,East,90,1.2,1.2,74,0.00,CLR,BKN,0.00,WeatherDisplay:10.37,2013-04-25 12:18:00,
2013-04-25 08:23:00,73.6,64.8,30.00,East,90,1.2,1.2,74,0.00,CLR,BKN,0.00,WeatherDisplay:10.37,2013-04-25 12:23:00,
2013-04-25 08:28:00,73.6,64.8,30.00,East,90,1.2,1.2,74,0.00,CLR,BKN,0.00,WeatherDisplay:10.37,2013-04-25 12:28:00,
2013-04-25 08:33:00,77.0,65.2,30.00,East,90,1.2,1.2,67,0.00,CLR,BKN,0.00,WeatherDisplay:10.37,2013-04-25 12:33:00,
2013-04-25 08:38:00,77.0,65.2,30.00,East,90,1.2,1.2,67,0.00,CLR,BKN,0.00,WeatherDisplay:10.37,2013-04-25 12:38:00,
2013-04-25 08:43:00,77.0,65.2,30.00,East,90,1.2,1.2,67,0.00,CLR,BKN,0.00,WeatherDisplay:10.37,2013-04-25 12:43:00,
2013-04-25 08:48:00,77.0,65.2,30.00,East,90,1.2,1.2,67,0.00,CLR,BKN,0.00,WeatherDisplay:10.37,2013-04-25 12:48:00,
2013-04-25 08:53:00,77.0,65.2,30.00,East,90,1.2,1.2,67,0.00,CLR,BKN,0.00,WeatherDisplay:10.37,2013-04-25 12:53:00,
2013-04-25 08:58:00,77.0,65.2,30.00,East,90,1.2,1.2,67,0.00,CLR,BKN,0.00,WeatherDisplay:10.37,2013-04-25 12:58:00,
2013-04-25 09:03:00,79.3,62.8,30.00,East,90,2.4,2.4,57,0.00,CLR,BKN,0.00,WeatherDisplay:10.37,2013-04-25 13:03:00,
2013-04-25 09:08:00,79.3,62.8,30.00,East,90,2.4,2.4,57,0.00,CLR,BKN,0.00,WeatherDisplay:10.37,2013-04-25 13:08:00,
2013-04-25 09:13:00,79.3,62.8,30.00,East,90,2.4,2.4,57,0.00,CLR,BKN,0.00,WeatherDisplay:10.37,2013-04-25 13:13:00,
2013-04-25 09:18:00,79.3,62.8,30.00,East,90,2.4,2.4,57,0.00,CLR,BKN,0.00,WeatherDisplay:10.37,2013-04-25 13:18:00,
2013-04-25 09:23:00,79.3,62.8,30.00,East,90,2.4,2.4,57,0.00,CLR,BKN,0.00,WeatherDisplay:10.37,2013-04-25 13:23:00,
2013-04-25 09:28:00,79.3,62.8,30.00,East,90,2.4,2.4,57,0.00,CLR,BKN,0.00,WeatherDisplay:10.37,2013-04-25 13:28:00,
2013-04-25 09:33:00,81.1,62.4,30.01,East,90,2.4,2.4,53,0.00,CLR,BKN,0.00,WeatherDisplay:10.37,2013-04-25 13:33:00,
2013-04-25 09:38:00,81.1,62.4,30.01,East,90,2.4,2.4,53,0.00,CLR,BKN,0.00,WeatherDisplay:10.37,2013-04-25 13:38:00,
2013-04-25 09:43:00,81.1,62.4,30.01,East,90,2.4,2.4,53,0.00,CLR,BKN,0.00,WeatherDisplay:10.37,2013-04-25 13:43:00,
2013-04-25 09:48:00,81.1,62.4,30.01,East,90,2.4,2.4,53,0.00,CLR,BKN,0.00,WeatherDisplay:10.37,2013-04-25 13:48:00,
2013-04-25 09:53:00,81.1,62.4,30.01,East,90,2.4,2.4,53,0.00,CLR,BKN,0.00,WeatherDisplay:10.37,2013-04-25 13:53:00,
2013-04-25 09:58:00,81.1,62.4,30.01,East,90,2.4,2.4,53,0.00,CLR,BKN,0.00,WeatherDisplay:10.37,2013-04-25 13:58:00,
2013-04-25 10:03:00,82.2,63.9,30.01,NE,45,3.5,3.5,54,0.00,CLR,BKN,0.00,WeatherDisplay:10.37,2013-04-25 14:03:00,
2013-04-25 10:08:00,82.2,63.9,30.01,NE,45,3.5,3.5,54,0.00,CLR,BKN,0.00,WeatherDisplay:10.37,2013-04-25 14:08:00,
2013-04-25 10:13:00,82.2,63.9,30.01,NE,45,3.5,3.5,54,0.00,CLR,BKN,0.00,WeatherDisplay:10.37,2013-04-25 14:13:00,
2013-04-25 10:18:00,82.2,63.9,30.01,NE,45,3.5,3.5,54,0.00,CLR,BKN,0.00,WeatherDisplay:10.37,2013-04-25 14:18:00,
2013-04-25 10:23:00,82.2,63.9,30.01,NE,45,3.5,3.5,54,0.00,CLR,BKN,0.00,WeatherDisplay:10.37,2013-04-25 14:23:00,
2013-04-25 10:28:00,82.2,63.9,30.01,NE,45,3.5,3.5,54,0.00,CLR,BKN,0.00,WeatherDisplay:10.37,2013-04-25 14:28:00,
2013-04-25 10:33:00,83.5,64.0,30.02,SSE,158,5.8,5.8,52,0.00,CLR,BKN,0.00,WeatherDisplay:10.37,2013-04-25 14:33:00,
2013-04-25 10:38:00,83.5,64.0,30.02,SSE,158,5.8,5.8,52,0.00,CLR,BKN,0.00,WeatherDisplay:10.37,2013-04-25 14:38:00,
2013-04-25 10:43:00,83.5,64.0,30.02,SSE,158,5.8,5.8,52,0.00,CLR,BKN,0.00,WeatherDisplay:10.37,2013-04-25 14:43:00,
2013-04-25 10:48:00,83.5,64.0,30.02,SSE,158,5.8,5.8,52,0.00,CLR,BKN,0.00,WeatherDisplay:10.37,2013-04-25 14:48:00,
2013-04-25 10:53:00,83.5,64.0,30.02,SSE,158,5.8,5.8,52,0.00,CLR,BKN,0.00,WeatherDisplay:10.37,2013-04-25 14:53:00,
2013-04-25 10:58:00,83.5,64.0,30.02,SSE,158,5.8,5.8,52,0.00,CLR,BKN,0.00,WeatherDisplay:10.37,2013-04-25 14:58:00,
2013-04-25 11:03:00,84.2,63.5,30.02,SSE,158,5.2,5.2,50,0.00,CLR,BKN,0.00,WeatherDisplay:10.37,2013-04-25 15:03:00,
2013-04-25 11:08:00,84.2,63.5,30.02,SSE,158,5.2,5.2,50,0.00,CLR,BKN,0.00,WeatherDisplay:10.37,2013-04-25 15:08:00,
2013-04-25 11:13:00,84.2,63.5,30.02,SSE,158,4.6,5.2,50,0.00,CLR,BKN,0.00,WeatherDisplay:10.37,2013-04-25 15:13:00,
2013-04-25 11:18:00,84.2,63.5,30.02,SSE,158,4.6,5.2,50,0.00,CLR,BKN,0.00,WeatherDisplay:10.37,2013-04-25 15:18:00,
2013-04-25 11:23:00,84.2,63.5,30.02,SSE,158,5.2,5.2,50,0.00,CLR,BKN,0.00,WeatherDisplay:10.37,2013-04-25 15:23:00,
2013-04-25 11:28:00,84.2,63.5,30.02,SSE,158,5.2,5.2,50,0.00,CLR,BKN,0.00,WeatherDisplay:10.37,2013-04-25 15:28:00,
2013-04-25 11:33:00,84.4,63.7,30.03,East,90,5.2,5.2,50,0.00,CLR,BKN,0.00,WeatherDisplay:10.37,2013-04-25 15:33:00,
2013-04-25 11:38:00,84.4,63.7,30.03,East,90,5.2,5.2,50,0.00,CLR,BKN,0.00,WeatherDisplay:10.37,2013-04-25 15:38:00,
2013-04-25 11:43:00,84.4,63.7,30.03,East,90,5.2,5.2,50,0.00,CLR,BKN,0.00,WeatherDisplay:10.37,2013-04-25 15:43:00,
2013-04-25 11:48:00,84.4,63.7,30.03,East,90,5.2,5.2,50,0.00,CLR,BKN,0.00,WeatherDisplay:10.37,2013-04-25 15:48:00,
2013-04-25 11:53:00,84.4,63.7,30.03,East,90,5.2,5.2,50,0.00,CLR,BKN,0.00,WeatherDisplay:10.37,2013-04-25 15:53:00,
2013-04-25 11:58:00,84.4,63.7,30.03,East,90,5.2,5.2,50,0.00,CLR,BKN,0.00,WeatherDisplay:10.37,2013-04-25 15:58:00,
2013-04-25 12:03:00,86.5,65.7,30.02,South,180,2.3,2.3,50,0.00,CLR,BKN,0.00,WeatherDisplay:10.37,2013-04-25 16:03:00,
2013-04-25 12:08:00,86.5,65.7,30.02,South,180,2.3,2.3,50,0.00,CLR,BKN,0.00,WeatherDisplay:10.37,2013-04-25 16:08:00,
2013-04-25 12:13:00,86.5,65.7,30.02,South,180,2.3,2.3,50,0.00,CLR,BKN,0.00,WeatherDisplay:10.37,2013-04-25 16:13:00,
2013-04-25 12:18:00,86.5,65.7,30.02,South,180,2.3,2.3,50,0.00,CLR,BKN,0.00,WeatherDisplay:10.37,2013-04-25 16:18:00,
2013-04-25 12:23:00,86.5,65.7,30.02,South,180,2.3,2.3,50,0.00,CLR,BKN,0.00,WeatherDisplay:10.37,2013-04-25 16:23:00,
2013-04-25 12:28:00,86.5,65.7,30.02,South,180,2.3,2.3,50,0.00,CLR,BKN,0.00,WeatherDisplay:10.37,2013-04-25 16:28:00,
2013-04-25 12:33:00,85.6,64.3,30.02,ENE,68,3.5,3.5,49,0.00,CLR,BKN,0.00,WeatherDisplay:10.37,2013-04-25 16:33:00,
2013-04-25 12:38:00,85.6,64.3,30.02,ENE,68,3.5,3.5,49,0.00,CLR,BKN,0.00,WeatherDisplay:10.37,2013-04-25 16:38:00,
2013-04-25 12:43:00,85.6,64.3,30.02,ENE,68,3.5,3.5,49,0.00,CLR,BKN,0.00,WeatherDisplay:10.37,2013-04-25 16:43:00,
2013-04-25 12:48:00,85.6,64.3,30.02,ENE,68,3.5,3.5,49,0.00,CLR,BKN,0.00,WeatherDisplay:10.37,2013-04-25 16:48:00,
2013-04-25 12:53:00,85.6,64.3,30.02,ENE,68,3.5,3.5,49,0.00,CLR,BKN,0.00,WeatherDisplay:10.37,2013-04-25 16:53:00,
2013-04-25 12:58:00,85.6,64.3,30.02,ENE,68,3.5,3.5,49,0.00,CLR,BKN,0.00,WeatherDisplay:10.37,2013-04-25 16:58:00,
2013-04-25 13:03:00,86.0,64.0,30.01,WSW,248,1.6,1.6,48,0.00,CLR,BKN,0.00,WeatherDisplay:10.37,2013-04-25 17:03:00,
2013-04-25 13:08:00,86.0,64.0,30.01,WSW,248,1.6,1.6,48,0.00,CLR,BKN,0.00,WeatherDisplay:10.37,2013-04-25 17:08:00,
2013-04-25 13:13:00,86.0,64.0,30.01,WSW,248,1.6,1.6,48,0.00,CLR,BKN,0.00,WeatherDisplay:10.37,2013-04-25 17:13:00,
2013-04-25 13:18:00,86.0,64.0,30.01,WSW,248,1.6,1.6,48,0.00,CLR,BKN,0.00,WeatherDisplay:10.37,2013-04-25 17:18:00,
2013-04-25 13:23:00,86.0,64.0,30.01,WSW,248,1.6,1.6,48,0.00,CLR,BKN,0.00,WeatherDisplay:10.37,2013-04-25 17:23:00,
2013-04-25 13:28:00,86.0,64.0,30.01,WSW,248,1.6,1.6,48,0.00,CLR,BKN,0.00,WeatherDisplay:10.37,2013-04-25 17:28:00,
2013-04-25 13:33:00,86.9,63.6,30.01,ENE,68,1.6,1.6,46,0.00,CLR,BKN,0.00,WeatherDisplay:10.37,2013-04-25 17:33:00,
2013-04-25 13:38:00,86.9,63.6,30.01,ENE,68,1.6,1.6,46,0.00,CLR,BKN,0.00,WeatherDisplay:10.37,2013-04-25 17:38:00,
2013-04-25 13:43:00,86.9,63.6,30.01,ENE,68,1.6,1.6,46,0.00,CLR,BKN,0.00,WeatherDisplay:10.37,2013-04-25 17:43:00,
2013-04-25 13:49:00,86.9,63.6,30.01,ENE,68,1.6,1.6,46,0.00,CLR,BKN,0.00,WeatherDisplay:10.37,2013-04-25 17:49:00,
2013-04-25 13:54:00,86.9,63.6,30.01,ENE,68,1.6,1.6,46,0.00,CLR,BKN,0.00,WeatherDisplay:10.37,2013-04-25 17:54:00,
2013-04-25 13:59:00,86.9,63.6,30.01,ENE,68,1.6,1.6,46,0.00,CLR,BKN,0.00,WeatherDisplay:10.37,2013-04-25 17:59:00,
2013-04-25 14:04:00,87.4,62.8,30.00,SSE,158,1.2,1.2,44,0.00,CLR,BKN,0.00,WeatherDisplay:10.37,2013-04-25 18:04:00,
2013-04-25 14:09:00,87.4,62.8,30.00,SSE,158,1.2,1.2,44,0.00,CLR,BKN,0.00,WeatherDisplay:10.37,2013-04-25 18:09:00,
2013-04-25 14:14:00,87.4,62.8,30.00,SSE,158,1.2,1.2,44,0.00,CLR,BKN,0.00,WeatherDisplay:10.37,2013-04-25 18:14:00,
2013-04-25 14:19:00,87.4,62.8,30.00,SSE,158,1.2,1.2,44,0.00,CLR,BKN,0.00,WeatherDisplay:10.37,2013-04-25 18:19:00,
2013-04-25 14:24:00,87.4,62.8,30.00,SSE,158,1.2,1.2,44,0.00,CLR,BKN,0.00,WeatherDisplay:10.37,2013-04-25 18:24:00,
2013-04-25 14:29:00,87.4,62.8,30.00,SSE,158,1.2,1.2,44,0.00,CLR,BKN,0.00,WeatherDisplay:10.37,2013-04-25 18:29:00,
2013-04-25 14:34:00,87.1,63.2,30.00,East,90,1.2,1.2,45,0.00,CLR,BKN,0.00,WeatherDisplay:10.37,2013-04-25 18:34:00,
2013-04-25 14:39:00,87.1,63.2,30.00,East,90,1.2,1.2,45,0.00,CLR,BKN,0.00,WeatherDisplay:10.37,2013-04-25 18:39:00,
2013-04-25 14:44:00,87.1,63.2,30.00,East,90,1.2,1.2,45,0.00,CLR,BKN,0.00,WeatherDisplay:10.37,2013-04-25 18:44:00,
2013-04-25 14:49:00,87.1,63.2,30.00,East,90,1.2,1.2,45,0.00,CLR,BKN,0.00,WeatherDisplay:10.37,2013-04-25 18:49:00,
2013-04-25 14:54:00,87.1,63.2,30.00,East,90,1.2,1.2,45,0.00,CLR,BKN,0.00,WeatherDisplay:10.37,2013-04-25 18:54:00,
2013-04-25 14:59:00,87.1,63.2,30.00,East,90,1.2,1.2,45,0.00,CLR,BKN,0.00,WeatherDisplay:10.37,2013-04-25 18:59:00,
2013-04-25 15:04:00,88.2,61.5,30.00,East,90,4.9,4.9,41,0.00,CLR,BKN,0.00,WeatherDisplay:10.37,2013-04-25 19:04:00,
2013-04-25 15:09:00,88.2,61.5,30.00,East,90,4.9,4.9,41,0.00,CLR,BKN,0.00,WeatherDisplay:10.37,2013-04-25 19:09:00,
2013-04-25 15:14:00,88.2,61.5,30.00,East,90,4.6,4.9,41,0.00,CLR,BKN,0.00,WeatherDisplay:10.37,2013-04-25 19:14:00,
2013-04-25 15:19:00,88.2,61.5,30.00,East,90,4.9,4.9,41,0.00,CLR,BKN,0.00,WeatherDisplay:10.37,2013-04-25 19:19:00,
2013-04-25 15:24:00,88.2,61.5,30.00,East,90,4.9,4.9,41,0.00,CLR,BKN,0.00,WeatherDisplay:10.37,2013-04-25 19:24:00,
2013-04-25 15:29:00,88.2,61.5,30.00,East,90,4.9,4.9,41,0.00,CLR,BKN,0.00,WeatherDisplay:10.37,2013-04-25 19:29:00,
2013-04-25 15:34:00,87.4,62.2,29.99,NNE,22,1.2,1.2,43,0.00,CLR,BKN,0.00,WeatherDisplay:10.37,2013-04-25 19:34:00,
2013-04-25 15:39:00,87.4,62.2,29.99,NNE,22,1.2,1.2,43,0.00,CLR,BKN,0.00,WeatherDisplay:10.37,2013-04-25 19:39:00,
2013-04-25 15:44:00,87.4,62.2,29.99,NNE,22,1.2,1.2,43,0.00,CLR,BKN,0.00,WeatherDisplay:10.37,2013-04-25 19:44:00,
2013-04-25 15:49:00,87.4,62.2,29.99,NNE,22,1.2,1.2,43,0.00,CLR,BKN,0.00,WeatherDisplay:10.37,2013-04-25 19:49:00,
2013-04-25 15:54:00,87.4,62.2,29.99,NNE,22,1.2,1.2,43,0.00,CLR,BKN,0.00,WeatherDisplay:10.37,2013-04-25 19:54:00,
2013-04-25 15:59:00,87.4,62.2,29.99,NNE,22,1.2,1.2,43,0.00,CLR,BKN,0.00,WeatherDisplay:10.37,2013-04-25 19:59:00,
2013-04-25 16:04:00,87.4,62.8,29.97,East,90,4.6,4.6,44,0.00,CLR,BKN,0.00,WeatherDisplay:10.37,2013-04-25 20:04:00,
2013-04-25 16:09:00,87.4,62.8,29.97,East,90,4.6,4.6,44,0.00,CLR,BKN,0.00,WeatherDisplay:10.37,2013-04-25 20:09:00,
2013-04-25 16:14:00,87.4,62.8,29.97,East,90,4.6,4.6,44,0.00,CLR,BKN,0.00,WeatherDisplay:10.37,2013-04-25 20:14:00,
2013-04-25 16:19:00,87.4,62.8,29.97,East,90,4.6,4.6,44,0.00,CLR,BKN,0.00,WeatherDisplay:10.37,2013-04-25 20:19:00,
2013-04-25 16:24:00,87.4,62.8,29.97,East,90,4.6,4.6,44,0.00,CLR,BKN,0.00,WeatherDisplay:10.37,2013-04-25 20:24:00,
2013-04-25 16:29:00,87.4,62.8,29.97,East,90,4.6,4.6,44,0.00,CLR,BKN,0.00,WeatherDisplay:10.37,2013-04-25 20:29:00,
2013-04-25 16:34:00,86.2,61.7,29.97,NE,45,4.7,4.7,44,0.00,CLR,BKN,0.00,WeatherDisplay:10.37,2013-04-25 20:34:00,
2013-04-25 16:39:00,86.2,61.7,29.97,NE,45,4.7,4.7,44,0.00,CLR,BKN,0.00,WeatherDisplay:10.37,2013-04-25 20:39:00,
2013-04-25 16:44:00,86.2,61.7,29.97,NE,45,4.7,4.7,44,0.00,CLR,BKN,0.00,WeatherDisplay:10.37,2013-04-25 20:44:00,
2013-04-25 16:49:00,86.2,61.7,29.97,NE,45,4.7,4.7,44,0.00,CLR,BKN,0.00,WeatherDisplay:10.37,2013-04-25 20:49:00,
2013-04-25 16:54:00,86.2,61.7,29.97,NE,45,4.6,4.7,44,0.00,CLR,BKN,0.00,WeatherDisplay:10.37,2013-04-25 20:54:00,
2013-04-25 16:59:00,86.2,61.7,29.97,NE,45,4.7,4.7,44,0.00,CLR,BKN,0.00,WeatherDisplay:10.37,2013-04-25 20:59:00,
2013-04-25 17:04:00,84.7,61.0,29.97,East,90,4.6,4.6,45,0.00,CLR,BKN,0.00,WeatherDisplay:10.37,2013-04-25 21:04:00,
2013-04-25 17:09:00,84.7,61.0,29.97,East,90,4.6,4.6,45,0.00,CLR,BKN,0.00,WeatherDisplay:10.37,2013-04-25 21:09:00,
2013-04-25 17:14:00,84.7,61.0,29.97,East,90,4.6,4.6,45,0.00,CLR,BKN,0.00,WeatherDisplay:10.37,2013-04-25 21:14:00,
2013-04-25 17:19:00,84.7,61.0,29.97,East,90,4.6,4.6,45,0.00,CLR,BKN,0.00,WeatherDisplay:10.37,2013-04-25 21:19:00,
2013-04-25 17:24:00,84.7,61.0,29.97,East,90,4.6,4.6,45,0.00,CLR,BKN,0.00,WeatherDisplay:10.37,2013-04-25 21:24:00,
2013-04-25 17:29:00,84.7,61.0,29.97,East,90,4.6,4.6,45,0.00,CLR,BKN,0.00,WeatherDisplay:10.37,2013-04-25 21:29:00,
2013-04-25 17:34:00,83.1,60.8,29.97,ESE,112,4.6,4.6,47,0.00,CLR,BKN,0.00,WeatherDisplay:10.37,2013-04-25 21:34:00,
2013-04-25 17:39:00,83.1,60.8,29.97,ESE,112,4.6,4.6,47,0.00,CLR,BKN,0.00,WeatherDisplay:10.37,2013-04-25 21:39:00,
2013-04-25 17:44:00,83.1,60.8,29.97,ESE,112,4.6,4.6,47,0.00,CLR,BKN,0.00,WeatherDisplay:10.37,2013-04-25 21:44:00,
2013-04-25 17:49:00,83.1,60.8,29.97,ESE,112,4.6,4.6,47,0.00,CLR,BKN,0.00,WeatherDisplay:10.37,2013-04-25 21:49:00,
2013-04-25 17:54:00,83.1,60.8,29.97,ESE,112,4.6,4.6,47,0.00,CLR,BKN,0.00,WeatherDisplay:10.37,2013-04-25 21:54:00,
2013-04-25 17:59:00,83.1,60.8,29.97,ESE,112,4.6,4.6,47,0.00,CLR,BKN,0.00,WeatherDisplay:10.37,2013-04-25 21:59:00,
2013-04-25 18:04:00,82.9,60.6,29.98,ENE,68,3.5,3.5,47,0.00,CLR,BKN,0.00,WeatherDisplay:10.37,2013-04-25 22:04:00,
2013-04-25 18:09:00,82.9,60.6,29.98,ENE,68,3.5,3.5,47,0.00,CLR,BKN,0.00,WeatherDisplay:10.37,2013-04-25 22:09:00,
2013-04-25 18:14:00,82.9,60.6,29.98,ENE,68,3.5,3.5,47,0.00,CLR,BKN,0.00,WeatherDisplay:10.37,2013-04-25 22:14:00,
2013-04-25 18:19:00,82.9,60.6,29.98,ENE,68,3.5,3.5,47,0.00,CLR,BKN,0.00,WeatherDisplay:10.37,2013-04-25 22:19:00,
2013-04-25 18:24:00,82.9,60.6,29.98,ENE,68,3.5,3.5,47,0.00,CLR,BKN,0.00,WeatherDisplay:10.37,2013-04-25 22:24:00,
2013-04-25 18:29:00,82.9,60.6,29.98,ENE,68,3.5,3.5,47,0.00,CLR,BKN,0.00,WeatherDisplay:10.37,2013-04-25 22:29:00,
2013-04-25 18:34:00,81.5,59.3,29.99,NNE,22,2.4,2.4,47,0.00,CLR,BKN,0.00,WeatherDisplay:10.37,2013-04-25 22:34:00,
2013-04-25 18:39:00,81.5,59.3,29.99,NNE,22,2.4,2.4,47,0.00,CLR,BKN,0.00,WeatherDisplay:10.37,2013-04-25 22:39:00,
2013-04-25 18:44:00,81.5,59.3,29.99,NNE,22,2.3,2.4,47,0.00,CLR,BKN,0.00,WeatherDisplay:10.37,2013-04-25 22:44:00,
2013-04-25 18:49:00,81.5,59.3,29.99,NNE,22,2.4,2.4,47,0.00,CLR,BKN,0.00,WeatherDisplay:10.37,2013-04-25 22:49:00,
2013-04-25 18:54:00,81.5,59.3,29.99,NNE,22,2.4,2.4,47,0.00,CLR,BKN,0.00,WeatherDisplay:10.37,2013-04-25 22:54:00,
2013-04-25 18:59:00,81.5,59.3,29.99,NNE,22,2.4,2.4,47,0.00,CLR,BKN,0.00,WeatherDisplay:10.37,2013-04-25 22:59:00,
2013-04-25 19:04:00,80.2,59.3,30.00,ENE,68,3.5,3.5,49,0.00,CLR,BKN,0.00,WeatherDisplay:10.37,2013-04-25 23:04:00,
2013-04-25 19:09:00,80.2,59.3,30.00,ENE,68,3.5,3.5,49,0.00,CLR,BKN,0.00,WeatherDisplay:10.37,2013-04-25 23:09:00,
2013-04-25 19:14:00,80.2,59.3,30.00,ENE,68,3.5,3.5,49,0.00,CLR,BKN,0.00,WeatherDisplay:10.37,2013-04-25 23:14:00,
2013-04-25 19:19:00,80.2,59.3,30.00,ENE,68,3.5,3.5,49,0.00,CLR,BKN,0.00,WeatherDisplay:10.37,2013-04-25 23:19:00,
2013-04-25 19:24:00,80.2,59.3,30.00,ENE,68,3.5,3.5,49,0.00,CLR,BKN,0.00,WeatherDisplay:10.37,2013-04-25 23:24:00,
2013-04-25 19:29:00,80.2,59.3,30.00,ENE,68,3.5,3.5,49,0.00,CLR,BKN,0.00,WeatherDisplay:10.37,2013-04-25 23:29:00,
2013-04-25 19:34:00,79.3,59.6,29.99,NNE,22,4.7,4.7,51,0.00,CLR,BKN,0.00,WeatherDisplay:10.37,2013-04-25 23:34:00,
2013-04-25 19:40:00,79.3,59.6,29.99,NNE,22,4.6,4.7,51,0.00,CLR,BKN,0.00,WeatherDisplay:10.37,2013-04-25 23:40:00,
2013-04-25 19:45:00,79.3,59.6,29.99,NNE,22,4.7,4.7,51,0.00,CLR,BKN,0.00,WeatherDisplay:10.37,2013-04-25 23:45:00,
2013-04-25 19:50:00,79.3,59.6,29.99,NNE,22,4.7,4.7,51,0.00,CLR,BKN,0.00,WeatherDisplay:10.37,2013-04-25 23:50:00,
2013-04-25 19:55:00,79.3,59.6,29.99,NNE,22,4.7,4.7,51,0.00,CLR,BKN,0.00,WeatherDisplay:10.37,2013-04-25 23:55:00,
2013-04-25 20:00:00,79.3,59.6,29.99,NNE,22,4.6,4.7,51,0.00,CLR,BKN,0.00,WeatherDisplay:10.37,2013-04-26 00:00:00,
2013-04-25 20:05:00,77.7,59.7,30.00,East,90,2.6,2.6,54,0.00,CLR,BKN,0.00,WeatherDisplay:10.37,2013-04-26 00:05:00,
2013-04-25 20:10:00,77.7,59.7,30.00,East,90,2.3,2.6,54,0.00,CLR,BKN,0.00,WeatherDisplay:10.37,2013-04-26 00:10:00,
2013-04-25 20:15:00,77.7,59.7,30.00,East,90,2.6,2.6,54,0.00,CLR,BKN,0.00,WeatherDisplay:10.37,2013-04-26 00:15:00,
2013-04-25 20:20:00,77.7,59.7,30.00,East,90,2.6,2.6,54,0.00,CLR,BKN,0.00,WeatherDisplay:10.37,2013-04-26 00:20:00,
2013-04-25 20:25:00,77.7,59.7,30.00,East,90,2.6,2.6,54,0.00,CLR,BKN,0.00,WeatherDisplay:10.37,2013-04-26 00:25:00,
2013-04-25 20:30:00,77.7,59.7,30.00,East,90,2.3,2.6,54,0.00,CLR,BKN,0.00,WeatherDisplay:10.37,2013-04-26 00:30:00,
2013-04-25 20:35:00,77.0,60.1,30.01,ENE,68,4.6,4.6,56,0.00,CLR,BKN,0.00,WeatherDisplay:10.37,2013-04-26 00:35:00,
2013-04-25 20:40:00,77.0,60.1,30.01,ENE,68,4.6,4.6,56,0.00,CLR,BKN,0.00,WeatherDisplay:10.37,2013-04-26 00:40:00,
2013-04-25 20:45:00,77.0,60.1,30.01,ENE,68,4.6,4.6,56,0.00,CLR,BKN,0.00,WeatherDisplay:10.37,2013-04-26 00:45:00,
2013-04-25 20:50:00,77.0,60.1,30.01,ENE,68,4.6,4.6,56,0.00,CLR,BKN,0.00,WeatherDisplay:10.37,2013-04-26 00:50:00,
2013-04-25 20:55:00,77.0,60.1,30.01,ENE,68,4.6,4.6,56,0.00,CLR,BKN,0.00,WeatherDisplay:10.37,2013-04-26 00:55:00,
2013-04-25 21:00:00,76.5,60.1,30.02,NE,45,4.6,4.6,57,0.00,CLR,BKN,0.00,WeatherDisplay:10.37,2013-04-26 01:00:00,
2013-04-25 21:05:00,76.5,60.1,30.02,NE,45,2.4,2.4,57,0.00,CLR,BKN,0.00,WeatherDisplay:10.37,2013-04-26 01:05:00,
2013-04-25 21:10:00,76.5,60.1,30.02,NE,45,2.4,2.4,57,0.00,CLR,BKN,0.00,WeatherDisplay:10.37,2013-04-26 01:10:00,
2013-04-25 21:15:00,76.5,60.1,30.02,NE,45,2.4,2.4,57,0.00,CLR,BKN,0.00,WeatherDisplay:10.37,2013-04-26 01:15:00,
2013-04-25 21:20:00,76.5,60.1,30.02,NE,45,2.3,2.4,57,0.00,CLR,BKN,0.00,WeatherDisplay:10.37,2013-04-26 01:20:00,
2013-04-25 21:25:00,76.5,60.1,30.02,NE,45,2.4,2.4,57,0.00,CLR,BKN,0.00,WeatherDisplay:10.37,2013-04-26 01:25:00,
2013-04-25 21:30:00,76.5,60.1,30.02,NE,45,2.4,2.4,57,0.00,CLR,BKN,0.00,WeatherDisplay:10.37,2013-04-26 01:30:00,
2013-04-25 21:35:00,76.1,60.7,30.02,ENE,68,2.6,2.6,59,0.00,CLR,BKN,0.00,WeatherDisplay:10.37,2013-04-26 01:35:00,
2013-04-25 21:40:00,76.1,60.7,30.02,ENE,68,2.6,2.6,59,0.00,CLR,BKN,0.00,WeatherDisplay:10.37,2013-04-26 01:40:00,
2013-04-25 21:45:00,76.1,60.7,30.02,ENE,68,2.3,2.6,59,0.00,CLR,BKN,0.00,WeatherDisplay:10.37,2013-04-26 01:45:00,
2013-04-25 21:50:00,76.1,60.7,30.02,ENE,68,2.6,2.6,59,0.00,CLR,BKN,0.00,WeatherDisplay:10.37,2013-04-26 01:50:00,
2013-04-25 21:55:00,76.1,60.7,30.02,ENE,68,2.6,2.6,59,0.00,CLR,BKN,0.00,WeatherDisplay:10.37,2013-04-26 01:55:00,
2013-04-25 22:00:00,75.6,60.7,30.03,ENE,68,2.3,2.3,60,0.00,CLR,BKN,0.00,WeatherDisplay:10.37,2013-04-26 02:00:00,
2013-04-25 22:05:00,75.6,60.7,30.03,ENE,68,1.2,1.2,60,0.00,CLR,BKN,0.00,WeatherDisplay:10.37,2013-04-26 02:05:00,
2013-04-25 22:10:00,75.6,60.7,30.03,ENE,68,1.2,1.2,60,0.00,CLR,BKN,0.00,WeatherDisplay:10.37,2013-04-26 02:10:00,
2013-04-25 22:15:00,75.6,60.7,30.03,ENE,68,1.2,1.2,60,0.00,CLR,BKN,0.00,WeatherDisplay:10.37,2013-04-26 02:15:00,
2013-04-25 22:20:00,75.6,60.7,30.03,ENE,68,1.2,1.2,60,0.00,CLR,BKN,0.00,WeatherDisplay:10.37,2013-04-26 02:20:00,
2013-04-25 22:25:00,75.6,60.7,30.03,ENE,68,1.2,1.2,60,0.00,CLR,BKN,0.00,WeatherDisplay:10.37,2013-04-26 02:25:00,
2013-04-25 22:30:00,75.4,61.0,30.04,ENE,68,2.2,2.2,61,0.00,CLR,BKN,0.00,WeatherDisplay:10.37,2013-04-26 02:30:00,
2013-04-25 22:35:00,75.4,61.0,30.04,ENE,68,2.3,2.3,61,0.00,CLR,BKN,0.00,WeatherDisplay:10.37,2013-04-26 02:35:00,
2013-04-25 22:40:00,75.4,61.0,30.04,ENE,68,2.3,2.3,61,0.00,CLR,BKN,0.00,WeatherDisplay:10.37,2013-04-26 02:40:00,
2013-04-25 22:45:00,75.4,61.0,30.04,ENE,68,2.3,2.3,61,0.00,CLR,BKN,0.00,WeatherDisplay:10.37,2013-04-26 02:45:00,
2013-04-25 22:50:00,75.4,61.0,30.04,ENE,68,2.3,2.3,61,0.00,CLR,BKN,0.00,WeatherDisplay:10.37,2013-04-26 02:50:00,
2013-04-25 22:55:00,75.4,61.0,30.04,ENE,68,2.3,2.3,61,0.00,CLR,BKN,0.00,WeatherDisplay:10.37,2013-04-26 02:55:00,
2013-04-25 23:00:00,75.0,60.7,30.03,NE,45,2.3,2.3,61,0.00,CLR,BKN,0.00,WeatherDisplay:10.37,2013-04-26 03:00:00,
2013-04-25 23:05:00,75.0,60.7,30.03,NE,45,1.2,1.2,61,0.00,CLR,BKN,0.00,WeatherDisplay:10.37,2013-04-26 03:05:00,
2013-04-25 23:10:00,75.0,60.7,30.03,NE,45,1.2,1.2,61,0.00,CLR,BKN,0.00,WeatherDisplay:10.37,2013-04-26 03:10:00,
2013-04-25 23:15:00,75.0,60.7,30.03,NE,45,1.2,1.2,61,0.00,CLR,BKN,0.00,WeatherDisplay:10.37,2013-04-26 03:15:00,
2013-04-25 23:20:00,75.0,60.7,30.03,NE,45,1.2,1.2,61,0.00,CLR,BKN,0.00,WeatherDisplay:10.37,2013-04-26 03:20:00,
2013-04-25 23:25:00,75.0,60.7,30.03,NE,45,1.2,1.2,61,0.00,CLR,BKN,0.00,WeatherDisplay:10.37,2013-04-26 03:25:00,
2013-04-25 23:30:00,74.5,60.6,30.04,East,90,1.2,1.8,62,0.00,CLR,BKN,0.00,WeatherDisplay:10.37,2013-04-26 03:30:00,
2013-04-25 23:35:00,74.5,60.6,30.04,East,90,2.3,2.3,62,0.00,CLR,BKN,0.00,WeatherDisplay:10.37,2013-04-26 03:35:00,
2013-04-25 23:40:00,74.5,60.6,30.04,East,90,2.3,2.3,62,0.00,CLR,BKN,0.00,WeatherDisplay:10.37,2013-04-26 03:40:00,
2013-04-25 23:45:00,74.5,60.6,30.04,East,90,2.3,2.3,62,0.00,CLR,BKN,0.00,WeatherDisplay:10.37,2013-04-26 03:45:00,
2013-04-25 23:50:00,74.5,60.6,30.04,East,90,2.3,2.3,62,0.00,CLR,BKN,0.00,WeatherDisplay:10.37,2013-04-26 03:50:00,
2013-04-25 23:55:00,74.5,60.6,30.04,East,90,2.3,2.3,62,0.00,CLR,BKN,0.00,WeatherDisplay:10.37,2013-04-26 03:55:00,